RH
33 34 34 31 31 35 35 30 33 31 25 24 21 29 31 31 31 31 27 29 33 37 40 44 48 48 56 73 65 63 64 63 65 66 63 69 71 73 70 73 71 67 66 66
32 32 37 37 29 25 33 31 31 24 22 21 21 28 30 29 31 33 32 34 37 38 41 46 49 57 62 65 69 71 62 60 60 64 67 72 75 74 71 69 65 67 70 70
28 29 21 22 26 21 27 30 32 25 22 19 24 33 32 32 35 40 39 44 39 37 40 43 46 50 56 57 58 60 59 60 62 67 71 72 70 64 60 62 68 72 73 68
27 29 26 21 22 22 26 26 25 22 21 26 30 43 38 37 42 43 47 45 44 44 43 43 50 49 49 50 52 54 57 61 65 68 65 61 58 61 64 66 66 64 60 59
27 25 25 26 26 23 26 25 22 22 25 28 31 43 53 50 49 47 51 50 52 51 47 43 42 43 47 51 54 57 61 64 64 58 53 54 55 56 56 55 57 60 61 63
28 25 23 23 22 23 24 27 29 33 32 43 42 47 58 56 58 55 56 58 61 56 49 46 45 46 49 53 58 59 57 56 58 58 56 55 54 53 54 56 56 56 58 56
29 29 24 28 31 32 29 38 52 58 64 62 48 52 67 63 56 56 58 60 58 56 54 54 52 55 55 54 56 57 56 56 55 55 55 58 58 58 59 58 56 57 53 49
41 50 30 27 32 32 32 34 52 57 70 62 44 56 60 57 59 65 67 65 64 62 61 58 56 60 64 66 64 61 59 59 56 57 56 55 58 58 61 62 62 56 51 45
44 42 29 20 22 31 36 31 29 44 45 51 49 57 62 64 66 66 69 71 73 69 62 61 60 62 63 62 64 63 60 60 59 60 62 64 69 68 65 63 56 50 50 41
37 34 26 31 35 32 30 28 41 46 50 45 46 62 67 64 64 67 67 70 70 62 64 69 69 67 65 64 62 60 61 62 65 63 62 62 64 62 56 53 50 42 37 34
33 33 32 33 29 29 34 37 35 35 47 56 59 52 52 59 63 63 58 60 61 63 65 66 66 62 59 59 57 57 59 59 55 53 54 53 47 44 44 46 42 41 38 29
28 33 39 33 30 27 27 31 35 50 47 61 64 51 44 53 60 64 71 70 66 67 68 65 60 58 58 56 55 54 50 48 46 43 40 42 53 54 57 54 57 67 51 54
27 28 45 40 38 31 28 32 33 44 48 49 60 53 51 57 64 67 72 70 69 66 64 59 61 60 58 57 53 48 46 43 42 46 49 49 60 58 71 76 76 66 73 68
28 25 30 41 30 28 27 28 29 41 56 52 55 50 47 60 60 64 65 65 66 66 64 64 64 61 57 54 50 47 44 43 45 46 47 48 56 51 57 73 73 80 92 79
25 34 30 28 25 27 28 29 30 33 38 49 47 52 56 60 66 69 69 68 68 71 68 64 60 58 53 52 49 43 41 41 37 39 39 43 46 61 75 75 71 95 89 82
25 38 30 30 31 30 30 32 32 34 38 40 46 51 58 60 61 62 65 70 72 72 67 60 56 54 54 51 47 46 41 38 38 38 38 36 48 62 62 70 76 91 87 88
33 36 38 43 35 39 45 34 32 35 40 43 50 53 56 60 63 67 72 74 74 69 61 56 54 54 49 46 45 42 41 41 38 36 32 35 44 50 54 63 86 92 92 80
33 38 42 45 39 40 37 31 31 37 41 44 55 60 61 63 68 71 72 73 70 65 58 56 52 49 45 43 41 40 40 37 33 26 26 29 35 41 48 65 98 96 88 86
36 38 44 50 48 34 35 32 35 39 45 50 57 61 66 71 74 73 71 69 65 60 57 53 49 44 41 37 35 36 34 31 28 30 33 38 41 45 53 76 95 88 86 78
41 42 43 51 51 50 40 38 38 41 52 54 58 65 70 71 78 75 71 65 63 57 53 46 42 38 37 35 35 33 31 31 33 38 45 48 46 54 56 59 78 81 76 66
49 49 49 51 52 43 33 37 37 49 50 58 60 66 70 73 74 75 69 63 59 53 48 44 41 39 37 34 32 32 34 37 39 44 47 50 57 64 72 77 82 73 62 49
43 50 51 51 55 54 34 38 43 43 51 61 66 70 73 76 75 71 67 64 58 52 49 42 39 37 34 32 32 33 35 38 42 45 46 54 65 74 81 84 74 50 43 49
43 39 46 43 42 35 39 43 44 46 55 66 73 76 76 76 77 75 69 62 56 52 44 40 39 36 33 32 33 34 36 37 42 44 49 61 71 74 79 67 46 43 45 49
36 38 44 45 42 44 48 46 47 54 62 71 78 78 82 83 76 70 64 57 53 44 45 40 36 33 30 30 33 35 38 41 45 50 56 66 69 67 56 48 47 42 42 48
33 36 38 41 42 45 48 50 56 62 70 83 84 82 77 76 71 67 58 52 46 44 39 34 29 27 29 29 30 36 38 43 51 56 61 65 62 48 40 43 46 43 44 50
37 40 46 47 47 45 52 58 65 75 84 86 85 79 78 72 67 55 52 44 42 39 34 28 26 26 28 29 32 35 40 49 58 61 63 64 54 45 44 46 47 46 47 53